Newport News, VA

6:25 AM EST on December 10, 2019 (GMT -0500)
Newport News-Williamsburg International

Weather History for KPHF - September, 2019

Change the Weather History Date:

Monday, September 16, 2019

  Actual Average Record
Temperature  
Mean Temperature 75 °F -  
Max Temperature 84 °F 81 °F 94 °F (1952)
Min Temperature 66 °F 63 °F 44 °F (1999)
Cooling Degree Days 10    
Growing Degree Days 25 (Base 50)    
Moisture  
Dew Point 68 °F    
Average Humidity 87    
Maximum Humidity 100    
Minimum Humidity 51    
Precipitation  
Precipitation 0.00 in - - ()
Sea Level Pressure  
Sea Level Pressure 30.05 in    
Wind  
Wind Speed 1 mph ()    
Max Wind Speed 8 mph    
Max Gust Speed -    
Visibility 4.5 miles    
Events Fog    
Averages and records for this station are not official NWS values.
T = Trace of Precipitation, MM = Missing Value Source: Averaged Metar Reports

Daily Weather History Graph

Daily Weather History Graph

Search for Another Location

Airport or City:

Astronomy

Sep. 16, 2019 Rise Set
Actual Time 6:48 AM EDT 7:12 PM EDT
Civil Twilight 6:22 AM EDT 7:38 PM EDT
Nautical Twilight 5:51 AM EDT 8:09 PM EDT
Astronomical Twilight 5:20 AM EDT 8:40 PM EDT
Moon 8:48 PM EDT (9/16) 8:51 AM EDT (9/16)
Length of Visible Light 13h 15m
Length of Day
12h 23m
Waning Gibbous, 94% of the Moon is Illuminated
Sep 16
Waning Gibbous
Sep 21
Last Quarter
Sep 28
New
Oct 5
First Quarter
Oct 13
Full

Hourly Weather History & Observations

Time (EDT) Temp. Heat Index Dew Point Humidity Pressure Visibility Wind Dir Wind Speed Gust Speed Precip Events Conditions
12:03 AM 72.0 °F - 70.0 °F 93% 30.09 in 4.0 mi Calm Calm - N/A   Clear
12:50 AM 69.8 °F - 68.0 °F 94% 30.09 in 1.8 mi Calm Calm - N/A   Clear
12:54 AM 70.0 °F - 68.0 °F 93% 30.09 in 1.2 mi Calm Calm - N/A   Clear
1:13 AM 71.1 °F - 69.1 °F 93% 30.09 in 5.0 mi Calm Calm - N/A   Clear
1:31 AM 69.1 °F - 66.9 °F 93% 30.08 in 1.5 mi Calm Calm - N/A   Clear
1:54 AM 69.1 °F - 68.0 °F 96% 30.08 in 2.0 mi Calm Calm - N/A   Clear
2:04 AM 69.1 °F - 68.0 °F 96% 30.07 in 10.0 mi Calm Calm - N/A   Clear
2:33 AM 69.1 °F - 68.0 °F 96% 30.07 in 1.5 mi Calm Calm - N/A   Clear
2:36 AM 69.1 °F - 66.9 °F 93% 30.07 in 0.8 mi Calm Calm - N/A   Mist
2:54 AM 68.0 °F - 66.9 °F 96% 30.07 in 0.2 mi Calm Calm - N/A Fog Fog
3:03 AM 69.1 °F - 66.9 °F 93% 30.07 in 0.8 mi Calm Calm - N/A   Mist
3:06 AM 69.1 °F - 66.9 °F 93% 30.07 in 1.2 mi Calm Calm - N/A   Scattered Clouds
3:48 AM 69.8 °F - 66.2 °F 88% 30.06 in 3.0 mi Calm Calm - N/A   Clear
3:54 AM 68.0 °F - 66.9 °F 96% 30.06 in 7.0 mi Calm Calm - N/A   Clear
4:08 AM 68.0 °F - 66.0 °F 93% 30.06 in 1.0 mi Calm Calm - N/A   Mist
4:14 AM 68.0 °F - 66.9 °F 96% 30.06 in 0.2 mi Calm Calm - N/A Fog Fog
4:21 AM 68.0 °F - 66.9 °F 96% 30.06 in 0.5 mi Calm Calm - N/A Fog Fog
4:33 AM 68.0 °F - 66.0 °F 93% 30.06 in 0.2 mi Calm Calm - N/A Fog Fog
4:50 AM 66.2 °F - 66.2 °F 100% 30.06 in 0.5 mi Calm Calm - N/A Fog Fog
4:54 AM 66.9 °F - 64.9 °F 93% 30.06 in 0.8 mi Calm Calm - N/A   Mist
4:58 AM 66.9 °F - 64.9 °F 93% 30.06 in 2.0 mi Calm Calm - N/A   Mostly Cloudy
5:10 AM 66.0 °F - 64.9 °F 96% 30.06 in 3.0 mi Calm Calm - N/A   Partly Cloudy
5:26 AM 69.1 °F - 66.9 °F 93% 30.06 in 1.5 mi Calm Calm - N/A   Partly Cloudy
5:30 AM 69.1 °F - 66.9 °F 93% 30.06 in 0.8 mi Calm Calm - N/A   Mist
5:44 AM 69.1 °F - 66.9 °F 93% 30.06 in 0.2 mi NNW 3.5 mph - N/A Fog Fog
5:51 AM 69.8 °F - 68.0 °F 94% 30.06 in 1.0 mi Calm Calm - N/A   Mist
5:52 AM 69.8 °F - 68.0 °F 94% 30.06 in 1.2 mi Calm Calm - N/A   Scattered Clouds
5:54 AM 70.0 °F - 68.0 °F 93% 30.06 in 1.8 mi NNW 3.5 mph - N/A   Scattered Clouds
5:57 AM 70.0 °F - 68.0 °F 93% 30.06 in 3.0 mi NNW 3.5 mph - N/A   Scattered Clouds
5:59 AM 69.1 °F - 68.0 °F 96% 30.06 in 2.5 mi North 4.6 mph - N/A   Mostly Cloudy
6:03 AM 70.0 °F - 68.0 °F 93% 30.06 in 1.5 mi North 3.5 mph - N/A   Mostly Cloudy
6:11 AM 66.9 °F - 64.9 °F 93% 30.06 in 0.2 mi Calm Calm - N/A Fog Fog
6:54 AM 68.0 °F - 66.9 °F 96% 30.07 in 0.2 mi Calm Calm - N/A Fog Fog
8:30 AM 73.0 °F - 72.0 °F 96% 30.08 in 1.0 mi North 3.5 mph - N/A   Mist
8:36 AM 73.0 °F - 71.1 °F 93% 30.08 in 3.0 mi North 3.5 mph - N/A   Overcast
8:54 AM 73.0 °F - 72.0 °F 96% 30.09 in 7.0 mi North 4.6 mph - N/A   Overcast
9:09 AM 73.9 °F - 72.0 °F 93% 30.09 in 8.0 mi NNW 4.6 mph - N/A   Overcast
9:51 AM 77.0 °F - 71.6 °F 83% 30.09 in 10.0 mi NNW 4.6 mph - N/A   Mostly Cloudy
9:54 AM 78.1 °F - 72.0 °F 81% 30.09 in 10.0 mi NNW 3.5 mph - N/A   Scattered Clouds
10:54 AM 81.0 °F 84.4 °F 70.0 °F 69% 30.08 in 10.0 mi NNE 8.1 mph - N/A   Clear
11:54 AM 82.0 °F 85.5 °F 69.1 °F 65% 30.07 in 10.0 mi East 5.8 mph - N/A   Clear
12:54 PM 82.9 °F 85.4 °F 66.9 °F 58% 30.05 in 10.0 mi SE 6.9 mph - N/A   Partly Cloudy
1:54 PM 84.0 °F 86.5 °F 66.9 °F 56% 30.03 in 10.0 mi Variable 5.8 mph - N/A   Clear
2:54 PM 84.9 °F 86.6 °F 64.9 °F 51% 30.01 in 10.0 mi ENE 6.9 mph - N/A   Clear
3:54 PM 84.0 °F 86.5 °F 66.9 °F 56% 29.98 in 10.0 mi East 8.1 mph - N/A   Clear
4:54 PM 84.0 °F 86.5 °F 66.9 °F 56% 29.97 in 10.0 mi East 6.9 mph - N/A   Clear
5:54 PM 81.0 °F 83.8 °F 68.0 °F 65% 29.96 in 10.0 mi East 8.1 mph - N/A   Clear
6:54 PM 78.1 °F - 66.9 °F 68% 29.97 in 10.0 mi East 5.8 mph - N/A   Clear
7:54 PM 73.0 °F - 66.9 °F 81% 29.98 in 10.0 mi East 4.6 mph - N/A   Clear
8:54 PM 73.0 °F - 68.0 °F 84% 29.98 in 10.0 mi ESE 6.9 mph - N/A   Clear
9:54 PM 71.1 °F - 66.9 °F 87% 29.99 in 10.0 mi Calm Calm - N/A   Clear
10:54 PM 69.1 °F - 66.9 °F 93% 29.98 in 10.0 mi Calm Calm - N/A   Clear
11:54 PM 69.1 °F - 66.0 °F 90% 29.98 in 7.0 mi Calm Calm - N/A   Clear